This is the latest recevied weather packets stored in our database for station/object KD4UFD. If no packets are shown the sender has not sent any weather packets the latest 10 day(s).
| Time | Temp. | Humidity | Pressure | Rain* | Wind** | Luminosity | Snow |
|---|---|---|---|---|---|---|---|
| 1777574373 | 18.89° C | 52% | 1013.7 hPa | 0 mm | - | 688 W/m² | - |
| 1777574067 | 18.33° C | 55% | 1013.7 hPa | 0 mm | - | 692 W/m² | - |
| 1777573763 | 18.33° C | 53% | 1013.8 hPa | 0 mm | - | 747 W/m² | - |
| 1777573459 | 18.89° C | 59% | 1013.8 hPa | 0 mm | - | 624 W/m² | - |
| 1777573155 | 17.78° C | 56% | 1013.9 hPa | 0 mm | - | 707 W/m² | - |
| 1777572852 | 17.78° C | 53% | 1013.9 hPa | 0 mm | - | 741 W/m² | - |
| 1777572548 | 18.33° C | 54% | 1013.7 hPa | 0 mm | - | 664 W/m² | - |
| 1777572243 | 18.33° C | 53% | 1014.1 hPa | 0 mm | - | 753 W/m² | - |
| 1777571939 | 18.33° C | 52% | 1014 hPa | 0 mm | - | 754 W/m² | - |
| 1777571634 | 18.33° C | 52% | 1014.1 hPa | 0 mm | - | 729 W/m² | - |
| 1777571331 | 17.78° C | 54% | 1014 hPa | 0 mm | - | 538 W/m² | - |
| 1777571027 | 17.78° C | 53% | 1014 hPa | 0 mm | - | 751 W/m² | - |
| 1777570723 | 17.78° C | 55% | 1013.7 hPa | 0 mm | - | 757 W/m² | - |
| 1777570420 | 17.78° C | 54% | 1014 hPa | 0 mm | - | 746 W/m² | - |
| 1777570116 | 17.78° C | 53% | 1014.1 hPa | 0 mm | - | 724 W/m² | - |
| 1777569812 | 17.78° C | 58% | 1014.2 hPa | 0 mm | - | 727 W/m² | - |
| 1777569508 | 17.22° C | 57% | 1013.9 hPa | 0 mm | - | 708 W/m² | - |
| 1777569205 | 17.78° C | 58% | 1014.2 hPa | 0 mm | - | 741 W/m² | - |
| 1777568901 | 17.78° C | 58% | 1014.2 hPa | 0 mm | - | 721 W/m² | - |
| 1777568598 | 17.78° C | 60% | 1014.2 hPa | 0 mm | - | 677 W/m² | - |
| 1777568295 | 17.22° C | 57% | 1014.3 hPa | 0 mm | - | 690 W/m² | - |
| 1777567991 | 17.22° C | 60% | 1014.3 hPa | 0 mm | - | 721 W/m² | - |
| 1777567688 | 17.78° C | 63% | 1014.5 hPa | 0 mm | - | 740 W/m² | - |
| 1777567385 | 16.67° C | 61% | 1014.4 hPa | 0 mm | - | 740 W/m² | - |
| 1777567083 | 16.67° C | 63% | 1014.4 hPa | 0 mm | - | 747 W/m² | - |
* Rain latest hour (hover to see other rain measurements)
** Current wind speed in m/s (hover to see current wind gust speed)